Weather History for Uccle, Belgium

Change the Weather History Date:

Saturday, January 18, 2014

  Actual Average Record
Temperature  
Mean Temperature 46 °F -  
Max Temperature 50 °F 42 °F - ()
Min Temperature 42 °F 32 °F - ()
Degree Days  
Heating Degree Days 19    
Moisture  
Dew Point 37 °F    
Average Humidity 63    
Maximum Humidity 74    
Minimum Humidity 53    
Precipitation  
Precipitation 0.00 in 0.08 in - ()
Sea Level Pressure  
Sea Level Pressure 29.48 in    
Wind  
Wind Speed 9 mph ()    
Max Wind Speed 16 mph    
Max Gust Speed -    
Visibility 9.4 miles    
Events      
T = Trace of Precipitation, MM = Missing Value Source: Averaged Metar Reports

Daily Weather History Graph

Daily Weather History Graph

Search for Another Location

Airport:

Trip Planner

Search our weather history database for the weather conditions in past years. The results will help you decide how hot, cold, wet, or windy it might be!

Date:

Astronomy

Jan. 18, 2014 Rise Set
Actual Time 8:35 AM CET 5:10 PM CET
Civil Twilight 7:58 AM CET 5:47 PM CET
Nautical Twilight 7:17 AM CET 6:28 PM CET
Astronomical Twilight 6:38 AM CET 7:07 PM CET
Moon 7:58 PM CET (1/18) 9:08 AM CET (1/18)
Length of Visible Light 9h 49m
Length of Day
8h 34m
Waning Gibbous, 95% of the Moon is Illuminated
Jan 18
Waning Gibbous
Jan 24
Last Quarter
Jan 30
New
Feb 6
First Quarter
Feb 15
Full

Hourly Weather History & Observations

Time (CET) Temp. Dew Point Humidity Pressure Visibility Wind Dir Wind Speed Gust Speed Precip Events Conditions
12:00 AM 48 °F 38 °F 58%  in - SSW 11.2 mph - -  
1:00 AM 48 °F 37 °F 56% 29.54 in - South 11.2 mph - -  
2:00 AM 46 °F 36 °F 59% 29.55 in - South 8.9 mph - -  
3:00 AM 44 °F 36 °F 64% 29.55 in - South 8.9 mph - -  
4:00 AM 44 °F 37 °F 68% 29.54 in - South 11.2 mph - -  
5:00 AM 44 °F 37 °F 68%  in - SSE 8.9 mph - -  
6:00 AM 43 °F 36 °F 70% 29.52 in - SSE 13.4 mph - -  
7:00 AM 43 °F 36 °F 70% 29.52 in - SSE 13.4 mph - -  
8:00 AM 42 °F 36 °F 74% 29.51 in 6 mi SSE 11.2 mph - -   Partly Cloudy
9:00 AM 42 °F 36 °F 73% 29.50 in 12 mi SSE 13.4 mph - -   Partly Cloudy
10:00 AM 43 °F 37 °F 72% 29.50 in 12 mi SSE 15.7 mph - -   Scattered Clouds
11:00 AM 46 °F 38 °F 63% 29.50 in - SSE 13.4 mph - -  
12:00 PM 47 °F 38 °F 61% 29.49 in 12 mi South 13.4 mph - -   Scattered Clouds
1:00 PM 48 °F 38 °F 58% 29.46 in - South 11.2 mph - -  
2:00 PM 48 °F 38 °F 57% 29.45 in 6 mi South 11.2 mph - -   Scattered Clouds
3:00 PM 49 °F 38 °F 55% 29.44 in 6 mi SSE 8.9 mph - -   Partly Cloudy
4:00 PM 50 °F 38 °F 53% 29.43 in 12 mi SSE 8.9 mph - -   Partly Cloudy
5:00 PM 48 °F 38 °F 57% 29.44 in - SE 6.7 mph - -  
6:00 PM 47 °F 38 °F 63% 29.43 in - SE 6.7 mph - -  
7:00 PM 46 °F 38 °F 63% 29.43 in - SE 6.7 mph - -  
8:00 PM 46 °F 37 °F 60% 29.43 in - SE 6.7 mph - -  
9:00 PM 45 °F 36 °F 62% 29.42 in - SE 11.2 mph - -  
10:00 PM 43 °F 35 °F 65% 29.43 in - SE 8.9 mph - -  
11:00 PM 43 °F 36 °F 70% 29.42 in - SE 8.9 mph - -